Regional Weather Roundup
Issued by NWS

Home | Current Version | Previous Version | Text Only | Print | Product List | Glossary On
Versions: 1 2 3 4 5 6 7 8 9 10 11 12 13 14 15 16 17 18 19 20 21 22 23 24 25 26 27 28 29 30 31 32 33 34 35 36 37 38 39 40 41 42 43 44 45 46 47 48 49 50
000
ASPQ40 PGUM 020814
RWRPQ
WEATHER ROUNDUP FOR THE MARIANAS AND MICRONESIA
NATIONAL WEATHER SERVICE TIYAN GU
600 PM CHST THU JUL 02 2015

GUZ001>004-020900-
MARIANA ISLANDS-

CITY           SKY/WX    TMP DP  RH WIND       PRES   REMARKS
GUAM AIRPORT   MOSUNNY   84  79  84 N12       29.73S HX  96
ANDERSEN AFB   MOSUNNY   82  75  78 N9        29.74R
ROTA AIRPORT   NOT AVBL
TINIAN AP      NOT AVBL
SAIPAN AP      LGT RAIN  82  75  78 E14       29.72R

$$

PMZ161-020900-
REPUBLIC OF PALAU-

CITY           SKY/WX    TMP DP  RH WIND       PRES   REMARKS
KOROR AP       CLOUDY    84  75  74 SW16G24   29.78R HX  92
KOROR WSO      CLOUDY    84  73  70 W8G21     29.77S HX  91

$$

PMZ171>174-020900-
FEDERATED STATES OF MICRONESIA-

CITY           SKY/WX    TMP DP  RH WIND       PRES   REMARKS
YAP AIRPORT    LGT RAIN  79  77  94 SW14G25   29.75R
CHUUK AP       LGT RAIN  81  77  89 SW14      29.61R
POHNPEI AP     NOT AVBL
POHNPEI WSO    LGT RAIN  79  77  94 S3        29.75F
KOSRAE AP      NOT AVBL

$$

PMZ181-020900-
REPUBLIC OF THE MARSHALL ISLANDS-

CITY           SKY/WX    TMP DP  RH WIND       PRES   REMARKS
KWAJALEIN AP   MOCLDY    82  73  74 NE12      29.79R
MAJURO AP      NOT AVBL
MAJURO WSO     LGT RAIN  81  77  89 NW20      29.64R

$$



USA.gov is the U.S. government's official web portal to all federal, state and local government web resources and services.